COSMOS 1275 DEB

Satellite information

Favourite Embed

Satellite Type and Status

DEBRISIN ORBIT

Key statistics

Satellite COSMOS 1275 DEB at a glance.

Uptime

16045

Days in orbit

Revolutions

≈ 14.3

Per day

Orbit

LEO

Low Earth Orbit

Inclination

82.9

Latest

Satellite identification and parameters

Extended collection of information and parameters for COSMOS 1275 DEB.

Object identification

Identified? True

Debris? True

Object name: COSMOS 1275 DEB

International designator: 1981-053SS

Object number (NORAD): 42178

Object ID (CCSDS): 42178

Country: COMMONWEALTH OF INDEPENDENT STATES (CIS)

Current information (Y/N): Y

RCS size: SMALL

Orbital parameters

Period: 100.93 minutes

Inclination: 82.9405 deg

SMA: 7180.811 km

Apoapsis: 811.054 km

Periapsis: 794.297 km

RAAN: 33.1859 deg

Eccentricy: 0.0011668

Argument of periapsis: 102.1594 deg

Mean anomaly: 258.0899 deg

Mean motion: 14.26732526 rev/day

Mean motion (dot): 0.00003877 rev/day2

B* drag term: 0.0015942 1/REarth

Two-line elements (TLE)

Creation date: May 8, 2025, 3:01 a.m.

Reference frame: TEME

Reference center: EARTH

Epoch: May 7, 2025, 10:57 a.m. UTC

TLE line 0: 0 COSMOS 1275 DEB

TLE line 1: 1 42178U 81053SS 25127.45656361 .00003877 00000-0 15942-2 0 9990

TLE line 2: 2 42178 82.9405 33.1859 0011668 102.1594 258.0899 14.26732526573043

Live tracking on map

Real-time ground track for satellite COSMOS 1275 DEB.

In-orbit conjunctions

A list of the most updated potential collisions computed for object COSMOS 1275 DEB.

Target Orbit TCA Probability of collision Miss distance Type
CZ-6A DEB LEO 2024-12-01 18:19:14 0.0001894782 448.0 (m) DEBRIS
NOAA 16 DEB SSO 2024-11-14 21:14:57 0.0007362612 266.0 (m) DEBRIS
NOAA 16 DEB SSO 2024-11-10 09:18:58 0.001771426 209.0 (m) DEBRIS

Associated space launch

Navigation satellite providing location information for the Tsiklon-B navigation system

COSMOS 1275 DEB was lifted into orbit during the mission ‘Kosmos-3M | Parus 27’, on board a Kosmos-3M space rocket.

The launch took place on June 4, 1981, 3:41 p.m. from 132/2.

For more information about the launch, click the button.

Launch to space Kosmos-3M | Parus 27
Kosmos-3M | Parus 27

Agency: N/A

Status: Launch Successful

Launch date: June 4, 1981, 3:41 p.m. UTC

Rocket: Kosmos-3M

Launch pad: 132/2

Location: Plesetsk Cosmodrome, Russian Federation

...

Latest news about this satellite

There are no fresh news available about this satellite. Check back as we update our databases every day.


Newsletter sign-up

Weekly statistics, charts and insights to help you stay on top of the space industry.